OH2FDL-2 Weather Reports


time (UTC)temp
C
wind
direction
speed
KPH
gust
KPH
rain 1hr
cm
rain 24hr
cm
rain mn
cm
humidity
%
barometer
mb
20260507070017 8 0.0 0.0 0.00 0.00 0.00 76 1011.8
20260507064518 7 0.0 0.0 0.00 0.00 0.00 79 1011.8
20260507063018 7 0.0 0.0 0.00 0.00 0.00 83 1011.8
20260507061518 7 0.0 0.0 0.00 0.00 0.00 87 1011.8
20260507060018 6 0.0 0.0 0.00 0.00 0.00 91 1011.7
20260507054524 5 0.0 0.0 0.00 0.00 0.00 94 1011.8
20260507053023 4 0.0 0.0 0.00 0.00 0.00 97 1011.7
20260507051518 4 0.0 0.0 0.00 0.00 0.00 10 1011.8
20260507044517 2 0.0 0.0 0.00 0.00 0.00 10 1011.6
20260507043017 1 0.0 0.0 0.00 0.00 0.00 10 1011.7
20260507041518 0 0.0 0.0 0.00 0.00 0.00 10 1011.7
20260507040018 0 0.0 0.0 0.00 0.00 0.00 10 1011.6
20260507031519 -2 0.0 0.0 0.00 0.00 0.00 10 1011.5
20260507030018 -2 0.0 0.0 0.00 0.00 0.00 10 1011.3
20260507024517 -3 0.0 0.0 0.00 0.00 0.00 10 1011.3
20260507021522 -3 0.0 0.0 0.00 0.00 0.00 10 1011.3
20260507020018 -3 0.0 0.0 0.00 0.00 0.00 10 1011.3
20260507013018 -3 0.0 0.0 0.00 0.00 0.00 10 1011.2
20260507011518 -2 0.0 0.0 0.00 0.00 0.00 10 1011.2
20260507010018 -2 0.0 0.0 0.00 0.00 0.00 10 1011.2
20260507004518 -2 0.0 0.0 0.00 0.00 0.00 10 1011.1
20260506233018 -1 0.0 0.0 0.00 0.00 0.00 10 1010.9
20260506231518 -1 0.0 0.0 0.00 0.00 0.00 10 1010.9
20260506230022 -1 0.0 0.0 0.00 0.00 0.00 10 1010.9
20260506224519 -1 0.0 0.0 0.00 0.00 0.00 10 1010.9
20260506223018 0 0.0 0.0 0.00 0.00 0.00 10 1010.9
20260506220018 0 0.0 0.0 0.00 0.00 0.00 10 1010.7
20260506213018 0 0.0 0.0 0.00 0.00 0.00 99 1010.5
20260506210018 0 0.0 0.0 0.00 0.00 0.00 94 1010.3
20260506204522 0 0.0 0.0 0.00 0.00 0.00 92 1010.2
20260506203023 1 0.0 0.0 0.00 0.00 0.00 90 1010.2
20260506201517 1 0.0 0.0 0.00 0.00 0.00 87 1010.2
20260506200018 2 0.0 0.0 0.00 0.00 0.00 85 1010.2
20260506194517 2 0.0 0.0 0.00 0.00 0.00 83 1010.1
20260506193028 3 0.0 0.0 0.00 0.00 0.00 80 1010.0
20260506191518 3 0.0 0.0 0.00 0.00 0.00 78 1009.9
20260506190018 4 0.0 0.0 0.00 0.00 0.00 75 1009.9
20260506184518 5 0.0 0.0 0.00 0.00 0.00 72 1009.9
20260506183018 6 0.0 0.0 0.00 0.00 0.00 69 1009.8
20260506181518 6 0.0 0.0 0.00 0.00 0.00 66 1009.8
20260506180023 7 0.0 0.0 0.00 0.00 0.00 63 1009.8
20260506174517 8 0.0 0.0 0.00 0.00 0.00 61 1009.8
20260506173018 8 0.0 0.0 0.00 0.00 0.00 60 1009.8
20260506171518 8 0.0 0.0 0.00 0.00 0.00 58 1009.7
20260506170018 9 0.0 0.0 0.00 0.00 0.00 57 1009.5
20260506164518 10 0.0 0.0 0.00 0.00 0.00 56 1009.5
20260506163018 10 0.0 0.0 0.00 0.00 0.00 54 1009.5
20260506161517 10 0.0 0.0 0.00 0.00 0.00 53 1009.4
20260506160018 11 0.0 0.0 0.00 0.00 0.00 52 1009.4
20260506154517 11 0.0 0.0 0.00 0.00 0.00 52 1009.4
20260506153018 11 0.0 0.0 0.00 0.00 0.00 51 1009.5
20260506151517 12 0.0 0.0 0.00 0.00 0.00 50 1009.5
20260506144522 12 0.0 0.0 0.00 0.00 0.00 50 1009.6
20260506143018 12 0.0 0.0 0.00 0.00 0.00 49 1009.5
20260506134517 11 0.0 0.0 0.00 0.00 0.00 50 1009.5
20260506133018 12 0.0 0.0 0.00 0.00 0.00 48 1009.5
20260506131518 13 0.0 0.0 0.00 0.00 0.00 48 1009.4
20260506130018 12 0.0 0.0 0.00 0.00 0.00 46 1009.4
20260506124517 12 0.0 0.0 0.00 0.00 0.00 44 1009.4
20260506123018 12 0.0 0.0 0.00 0.00 0.00 44 1009.4
20260506121518 12 0.0 0.0 0.00 0.00 0.00 44 1009.5
20260506120018 11 0.0 0.0 0.00 0.00 0.00 45 1009.4
20260506114517 11 0.0 0.0 0.00 0.00 0.00 45 1009.5
20260506113017 12 0.0 0.0 0.00 0.00 0.00 45 1009.4
20260506111517 12 0.0 0.0 0.00 0.00 0.00 46 1009.4
20260506110018 12 0.0 0.0 0.00 0.00 0.00 48 1009.4
20260506104518 11 0.0 0.0 0.00 0.00 0.00 50 1009.3
20260506103018 11 0.0 0.0 0.00 0.00 0.00 52 1009.3
20260506101518 10 0.0 0.0 0.00 0.00 0.00 52 1009.4
20260506100017 10 0.0 0.0 0.00 0.00 0.00 53 1009.3
20260506094517 12 0.0 0.0 0.00 0.00 0.00 55 1009.2
20260506093018 12 0.0 0.0 0.00 0.00 0.00 58 1009.2
20260506091517 14 0.0 0.0 0.00 0.00 0.00 64 1009.0
20260506090018 12 0.0 0.0 0.00 0.00 0.00 67 1009.0
20260506084518 11 0.0 0.0 0.00 0.00 0.00 73 1009.0
20260506081518 9 0.0 0.0 0.00 0.00 0.00 80 1008.8
20260506073018 7 0.0 0.0 0.00 0.00 0.00 92 1008.7
20260506071517 7 0.0 0.0 0.00 0.00 0.00 96 1008.6